This demonstration page uses our WeatherBlox Daily Observations layout. Learn more.

Left ArrowRight Arrow

Hourly Observations for October 22, 2016

Temp ( °F °C ) Dew Point ( °F °C ) Humidity (%) Winds ( mph kmh ) Pressure ( in mb ) Visibility ( mi km ) Precip ( " mm )
12:53 am 00:53 Clear 57 13.9 38 3.3 49 49 SE 8 13 30.03 1017 10 16 0.00 0.00
1:53 am 01:53 Clear 54 12.2 37 2.8 53 53 ESE 5 7 30.04 1017 10 16 0.00 0.00
2:53 am 02:53 Clear 53 11.7 37 2.8 55 55 ESE 6 9 30.03 1017 10 16 0.00 0.00
3:53 am 03:53 Clear 53 11.7 37 2.8 55 55 ESE 7 11 30.02 1017 10 16 0.00 0.00
4:53 am 04:53 Clear 52 11.1 38 3.3 59 59 E 6 9 30.01 1016 10 16 0.00 0.00
5:53 am 05:53 Clear 49 9.4 39 3.9 69 69 ENE 5 7 30.01 1016 10 16 0.00 0.00
6:53 am 06:53 Clear 45 7.2 37 2.8 74 74 ENE 3 6 30.04 1017 10 16 0.00 0.00
7:53 am 07:53 Clear 43 6.1 36 2.2 76 76 Calm 30.06 1018 10 16 0.00 0.00
8:53 am 08:53 Sunny 51 10.6 40 4.4 66 66 Calm 30.06 1018 10 16 0.00 0.00
9:53 am 09:53 Sunny 59 15 42 5.6 54 54 SE 6 9 30.06 1018 10 16 0.00 0.00
10:53 am 10:53 Sunny 66 18.9 44 6.7 45 45 ESE 8 13 30.06 1018 10 16 0.00 0.00
11:53 am 11:53 Sunny 73 22.8 45 7.2 37 37 ESE 6 9 30.04 1017 10 16 0.00 0.00
12:53 pm 12:53 Sunny 78 25.6 45 7.2 31 31 VRB 5 7 30.02 1017 10 16 0.00 0.00
1:53 pm 13:53 Sunny 81 27.2 45 7.2 28 28 S 10 17 29.98 1015 10 16 0.00 0.00
2:53 pm 14:53 Sunny 83 28.3 44 6.7 25 25 SSW 8 13 29.94 1014 10 16 0.00 0.00
3:53 pm 15:53 Sunny 85 29.4 43 6.1 23 23 SSW 13 20 29.92 1013 10 16 0.00 0.00
4:53 pm 16:53 Sunny 84 28.9 41 5 22 22 SSW 9 15 29.91 1013 10 16 0.00 0.00
5:53 pm 17:53 Sunny 85 29.4 42 5.6 22 22 SSW 10 17 29.91 1013 10 16 0.00 0.00
6:53 pm 18:53 Sunny 79 26.1 43 6.1 28 28 SSE 7 11 29.93 1013 10 16 0.00 0.00
7:53 pm 19:53 Clear 73 22.8 44 6.7 35 35 SE 9 15 29.96 1015 10 16 0.00 0.00
8:53 pm 20:53 Clear 73 22.8 46 7.8 38 38 SE 14 22 29.96 1015 10 16 0.00 0.00
9:53 pm 21:53 Clear 70 21.1 46 7.8 42 42 SE 13 20 29.96 1015 10 16 0.00 0.00
10:53 pm 22:53 Clear 67 19.4 46 7.8 47 47 SE 12 19 29.96 1015 10 16 0.00 0.00
11:53 pm 23:53 Clear 66 18.9 47 8.3 50 50 SE 12 19 29.96 1015 10 16 0.00 0.00

Powered by AerisWeather